Regional Weather Roundup
Issued by NWS

Home | Current Version | Previous Version | Text Only | Print | Product List | Glossary On
Versions: 1 2 3 4 5 6 7 8 9 10 11 12 13 14 15 16 17 18 19 20 21 22 23 24 25 26 27 28 29 30 31 32 33 34 35 36 37 38 39 40 41 42 43 44 45 46 47 48 49 50
000
ASUS42 KTBW 052016
RWRFL
FLORIDA REGIONAL WEATHER ROUNDUP
NATIONAL WEATHER SERVICE TAMPA BAY RUSKIN FL
400 PM EDT TUE MAY 05 2015

NOTE: "FAIR" INDICATES FEW OR NO CLOUDS BELOW 12,000 FEET WITH NO
SIGNIFICANT WEATHER AND/OR OBSTRUCTIONS TO VISIBILITY.


FLZ001>010-012>015-112-114-115-052100-
PANHANDLE FLORIDA

CITY           SKY/WX    TMP DP  RH WIND       PRES   REMARKS
PENSACOLA      SUNNY     78  59  51 S12G20    30.16F
PENSACOLA NAS  MOSUNNY   78  61  55 SE16      30.16F
MILTON NAS     MOSUNNY   83  55  38 E9        30.15
CRESTVIEW      MOSUNNY   81  55  40 E9        30.17F
DUKE FIELD     MOSUNNY   83  52  33 E12       30.15F
VALPARAISO     MOSUNNY   80  61  52 S8        30.15F
MARY ESTHER    SUNNY     79  58  49 S9        30.14F
PANAMA CITY    MOCLDY    83  54  36 E9        30.14F
TYNDALL AFB    MOSUNNY   83  60  46 E10       30.14F
APALACHICOLA   PTSUNNY   83  62  49 E10G20    30.15F

STATION/POSITION SKY/WX   TEMP    WIND        PRES    WAVE   SWELL
                          AIR SEA DIR/SP/G            HT/PER HT/PER
                          (F)     (DEG/KT/KT) (MB)    (FT/S) (FT/S)
30.1N   87.6W              73 74  100/ 14/ 16 1021.0F   5/ 7   3/ 7
29.2N   88.2W              74 76  100/ 17/ 21 1020.8F   6/ 7   3/10
28.8N   86.0W              73 75   80/ 16/ 17 1020.4F   5/ 6   2/ 9
PANAMA CITY BEAC           76 76  190/  6/  7 1021.3F
CAPE SAN BLAS    NOT AVBL
TOWER C                    73      70/ 13/ 15 1020.7F
28.5N   84.5W              75 75   70/ 12/ 16 1019.9F   4/ 5   2/ 8

$$
FLZ011-016>038-118-127-128-134-139-239-052100-
NORTH FLORIDA

CITY           SKY/WX    TMP DP  RH WIND       PRES   REMARKS
MARIANNA       MOSUNNY   82  54  37 E10G17    30.16F
TALLAHASSEE    PTSUNNY   83  56  39 NE8G18    30.16F
PERRY          PTSUNNY   78  63  59 E14G23    30.17S
CROSS CITY       N/A     80  63  55 NE9G17    30.14F
LAKE CITY      CLOUDY    72  66  83 CALM      30.18F
GAINESVILLE    CLOUDY    78  62  57 E14       30.15F
MAYPORT NAS    PTSUNNY   78  66  66 NE16G24   30.20F
JACKSONVILLE   PTSUNNY   79  61  53 E20       30.20F
JAX NAS        PTSUNNY   82  60  47 E15       30.19F
JAX CRAIG      PTSUNNY   78  62  57 NE13      30.20F
JAX CECIL      PTSUNNY   77  63  61 E18       30.19F
FERNANDINA BEA FAIR      81  63  54 NE18G26   30.20F
ST AUGUSTINE   CLOUDY    77  64  64 NE12      30.19F

STATION/POSITION SKY/WX   TEMP    WIND        PRES    WAVE   SWELL
                          AIR SEA DIR/SP/G            HT/PER HT/PER
                          (F)     (DEG/KT/KT) (MB)    (FT/S) (FT/S)
SHELL POINT                80     120/  6/  9   N/A
KEATON BEACH               76      50/  8/ 13 1020.8F
CEDAR KEY                  78      50/ 14/ 15 1019.9F
FERNANDINA                 75 74   30/ 11/ 15 1023.2F
30.7N   81.3W                 73                N/A     4/ 7
MAYPORT                    73 74   50/ 13/ 16 1023.6F
31.4N   80.9W              71 71   40/ 16/ 19 1024.1F   4/ 7   2/10
ST AUGUSTINE               73 74   40/  7/  8 1022.8F

$$
FLZ040-043>046-052-053-057-058-063-144-052100-
INTERIOR CENTRAL FLORIDA

CITY           SKY/WX    TMP DP  RH WIND       PRES   REMARKS
OCALA          PTSUNNY   81  57  44 E12       30.14F
THE VILLAGES     N/A     81  63  54 NE14G23   30.03F
LEESBURG       CLOUDY    82  60  47 NE16      30.15F
SANFORD        CLOUDY    79  60  52 E14       30.14F
ORLANDO EXEC   CLOUDY    80  61  52 E17G24    30.13F
ORLANDO INTL   CLOUDY    81  63  54 NE15      30.13F
KISSIMMEE      MOSUNNY   81  61  50 E17       30.13F
WINTER HAVEN   CLOUDY    83  62  49 NE15      30.13F
LAKELAND       MOSUNNY   81  63  54 E13G20    30.12F
BARTOW         MOSUNNY   81  59  47 E12G17    30.13F
OKEECHOBEE     CLOUDY    75  68  78 NE10      30.10F

$$
FLZ041-047-054-059-064-141-147-052100-
EAST CENTRAL FLORIDA

CITY           SKY/WX    TMP DP  RH WIND       PRES   REMARKS
ORMOND BEACH   MOSUNNY   75  64  69 NE14      30.16F
DAYTONA BEACH  CLOUDY    78  63  59 NE14      30.16F
DELAND           N/A    N/A N/A N/A NE15      30.17F
JFK SPACE CTR  CLOUDY    77  63  61 NE12      30.13F
TITUSVILLE     CLOUDY    77  66  69 NE18      30.14F
CAPE CANAVERAL CLOUDY    77  66  68 NE13      30.12F
PATRICK AFB    CLOUDY    78  67  68 NE16      30.11F
MELBOURNE      CLOUDY    77  65  66 NE17      30.11F
VERO BEACH     CLOUDY    75  66  73 NE16      30.10F
FT PIERCE      CLOUDY    77  68  73 E16G24    30.09F
STUART         SHOWER    72  68  88 NE5       30.09F

STATION/POSITION SKY/WX   TEMP    WIND        PRES    WAVE   SWELL
                          AIR SEA DIR/SP/G            HT/PER HT/PER
                          (F)     (DEG/KT/KT) (MB)    (FT/S) (FT/S)
28.5N   80.2W              76 78   50/ 17/ 23 1020.5F
28.9N   78.5W              74 78   80/ 17/ 19 1020.6F
TRIDENT PIER               77 76   30/ 10/ 13 1021.2F
28.4N   80.5W                 76                N/A     3/ 7
27.5N   80.2W                 77                N/A     5/ 8   2/13

$$
FLZ050-056-061-142-242-148-248-149-249-151-251-155-255-
160-260-052100-
WEST CENTRAL FLORIDA

CITY           SKY/WX    TMP DP  RH WIND       PRES   REMARKS
CRYSTAL RIVER  MOCLDY    82  59  44 E12G21    30.11F
INVERNESS      FAIR     N/A N/A N/A E8        30.13F
BROOKSVILLE    MOSUNNY   84  61  45 E14G24    30.11F
CLEARWATER     MOSUNNY   84  63  49 E10       30.09F
TAMPA INTL     PTSUNNY   87  59  38 NE10G22   30.10F
TAMPA EXEC     PTSUNNY   86  63  45 E10G16    30.11F
PLANT CITY     PTSUNNY   84  64  51 E10G17    30.12F
MACDILL AFB    MOSUNNY   85  65  50 E18G25    30.08F
PETER O KNIGHT MOSUNNY   86  61  42 E12G20    30.09F
ST PETERSBURG  MOSUNNY   82  66  58 E13       30.08F
SARASOTA       PTSUNNY   83  59  44 E15G22    30.06F
VENICE         FAIR      84  59  42 NE15G22   30.07F

STATION/POSITION SKY/WX   TEMP    WIND        PRES    WAVE   SWELL
                          AIR SEA DIR/SP/G            HT/PER HT/PER
                          (F)     (DEG/KT/KT) (MB)    (FT/S) (FT/S)
CEDAR KEY                  78      50/ 14/ 15 1019.9F
28.5N   84.5W              75 75   70/ 12/ 16 1019.9F   4/ 5   2/ 8
27.3N   84.2W                 77                N/A     4/ 5
CLEARWATER BEACH           82 76  100/ 12/ 17 1019.4F
MIDDLE TAMPA BAY           80      90/ 15/ 19 1019.5F
VENICE                     82 79   50/ 13/ 16 1017.8F

$$
FLZ066-069-070-075>078-162-262-165-265-052100-
SOUTHWEST FLORIDA AND KEYS

CITY           SKY/WX    TMP DP  RH WIND       PRES   REMARKS
PUNTA GORDA    PTSUNNY   82  65  56 E15G22    30.08F
FT MYERS       PTSUNNY   82  64  54 E10       30.05F
SOUTHWEST INTL PTSUNNY   81  64  56 NE14      30.06F
NAPLES         PTSUNNY   83  64  52 E13       30.05F
MARCO ISLAND   MOCLDY    82  61  47 E12       30.05F
IMMOKALEE      CLEAR    N/A N/A N/A E12       30.07F
MARATHON       CLOUDY    77  68  73 NE10      30.03F
KEY WEST NAS   CLOUDY    76  68  76 NE12      30.03F
KEY WEST INTL  CLOUDY    77  67  71 NE12      30.03F

STATION/POSITION SKY/WX   TEMP    WIND        PRES    WAVE   SWELL
                          AIR SEA DIR/SP/G            HT/PER HT/PER
                          (F)     (DEG/KT/KT) (MB)    (FT/S) (FT/S)
VENICE                     82 79   50/ 13/ 16 1017.8F
NAPLES                     80 77   80/  5/ 11 1018.2F
26.0N   85.6W              77 81   70/ 16/ 19 1017.7F   6/ 7   2/13
DRY TORTUGAS               77     100/ 19/ 20 1017.4F
NW FL BAY                  76     110/  8/ 10 1018.5
SAND KEY                   74      70/ 17/ 19 1017.0F
SOMBRERO KEY               75      60/ 14/ 15 1017.2F
LONG KEY                   74 76  100/  5/  6 1017.6F
MOLASSES REEF              75 78   70/  7/  8 1016.8F

$$
FLZ067-068-071>074-168-172>174-052100-
SOUTHEAST FLORIDA

CITY           SKY/WX    TMP DP  RH WIND       PRES   REMARKS
W PALM BEACH   CLOUDY    77  68  73 NE8       30.07F
FT LAUDER-EXEC LGT RAIN  76  70  82 NE8       30.04F
FT LAUDERDALE  CLOUDY    78  70  76 NE10      30.04F
POMPANO BEACH  LGT RAIN  77  69  76 NE12      30.04F
PEMBROKE PINES CLOUDY    78  68  71 NE10      30.06F
OPA LOCKA      CLOUDY    78  69  73 NE12      30.04F
MIAMI          CLOUDY    78  68  71 NE8       30.04F
WEST KENDALL   CLOUDY    78  68  71 E10       30.04F
HOMESTEAD      CLOUDY    78  69  73 E9        30.04F

STATION/POSITION SKY/WX   TEMP    WIND        PRES    WAVE   SWELL
                          AIR SEA DIR/SP/G            HT/PER HT/PER
                          (F)     (DEG/KT/KT) (MB)    (FT/S) (FT/S)
PORT EVERGLADES            76      40/  8/ 14 1017.1F
VIRGINIA KEY               75 76   70/ 12/ 14 1017.3F
LAKE WORTH                 75 77   40/ 11/ 14 1018.3F
SETTLEMENT POINT           72      70/ 14/ 14 1018.5F

$$



USA.gov is the U.S. government's official web portal to all federal, state and local government web resources and services.